Showing default

ORBCOMM FM 116, 41189

Orbit data source: Space-Track

ORBCOMM FM 116, 41189 is a payload satellite owned by Orbcomm (US) in LEO that was launched on Tue, 22 Dec 2015 UTC via an FALCON 9 launch vehicle from the Air Force Eastern Test Range (AFETR). Payload-class satellites include a variety of spacecraft equipped with specific instruments for various scientific and technological missions. These include communications satellites like Starlink; space stations such as the ISS; scientific satellites like the Hubble; Earth observation satellites from companies like Planet Labs, Umbra, and HawkEye 360; GPS; miniature CubeSats for education and research; and military/defense satellites.

Loading next visibility...
Identifier
41189, 2015-081L
Orbit
LEO
Last TLE update
9 hours ago
Origin
Manufacturer
SNC Louisville
Mission
Operational Commercial Communications
Bus & Motor
SN-100A, Unknown motor
Mass
172 kg wet, 158 kg dry
Launch date (UTC)
2015-12-22 (10 years ago)
Launch vehicle
FALCON 9
Launch site
Air Force Eastern Test Range (AFETR)
Object type
Payload
Rocket body
Debris
Shape & HBR
Box + 1 Pan + 1 Ant, 6.5 m
Radar Cross Section
2.222 m², Medium (>0.1 m² and < 1m²)

Expand to show TLE details & history

TLE from 9 hours ago
0 ORBCOMM FM 116
1 41189U 15081L   25199.57463086  .00000790  00000-0  20571-3 0  9997
2 41189  47.0027  47.3292 0002217 298.9225  61.1438 14.58266792510235
Epoch: 2025-07-18T13:47Z
TLE epoch observation values (Epoch: 2025-07-18T13:47:28.106Z)
Latitude
-0.00001°
Longitude
-96.16205°
Altitude
698.235 km
Speed
7.509 km/s
True Right ascension
03h 09m 19s
True Declination
0° 00' 00"
Sunlit
Object was in daylight at epoch
Visualization orbit readout
Latitude
-25.77414°
Longitude
108.62829°
Altitude
705.51 km
Speed
7.504 km/s
Apparent Right ascension
19h 39m 15s
Apparent Declination
-45° 36' 16"
Sunlit
Object is in full shadow
Visualization observer readout
Local Sidereal Time
11:47:33
Azimuth
118.654° SE
Elevation
-45.219°
Doppler factor
1
Orbital elements
Apogee altitude
701.579 km
Perigee altitude
698.441 km
Semi-major axis
7,078.147 km
Eccentricity
0.00022
Inclination
47.0027°
RAAN
47.3292°
Arg. of periapsis
298.9225°
True anomaly
61.16605°
Mean anomaly
61.1438°
Eccentric anomaly
61.15493°
Mean motion
3.64472 °/min
Orbital period
98.77 mins
BSTAR
0.00020571
Loading maneuver chart data...
Loading SW <> Apogee altitude chart data...
Loading historical data...
Loading historical data...
Loading historical data...
Loading historical data...
Loading historical data...
Loading historical data...
Loading historical data...
|